Methuen, Massachusetts, United States (01844)
Lat: 42.73N, Lon: 71.19W
Wx Zone: MAZ006
Local Info
Past Weather Observations for Wednesday, July 23, 2014

NOTE: This archive is for the closest National Weather Service station to Methuen. Information may differ from the station used for current weather conditions.

Click here for Long-term Archive

Time Weather Temperature Dewpoint Humidity Pressure Winds Precip Visibility
23:54
Partly Cloudy
Light Rain
72°F / 22°C 70°F / 21°C 94% 29.77 in
(1008 mb)
Calm 0.00 in
(0.00 mm)
10SM
23:16
Partly Cloudy
72°F / 22°C 70°F / 21°C 94% 29.8 in
(1009 mb)
Calm 0.00 in
(0.00 mm)
10SM
22:54
Partly Cloudy
Light Rain
72°F / 22°C 70°F / 21°C 94% 29.8 in
(1009 mb)
Calm 0.00 in
(0.00 mm)
10SM
21:54
Partly Cloudy
72°F / 22°C 70°F / 21°C 94% 29.8 in
(1009 mb)
SSW 3.5 mph
(SSW 6 kph)
0.15 in
(3.81 mm)
10SM
21:36
Mostly Cloudy
Light Rain
72°F / 22°C 70°F / 21°C 94% 29.8 in
(1009 mb)
Calm 0.15 in
(3.81 mm)
9SM
21:19
Overcast
Thunder Storms
72°F / 22°C 68°F / 20°C 88% 29.83 in
(1010 mb)
W 5.8 mph
(W 9 kph)
0.12 in
(3.05 mm)
5SM
21:08
Overcast
Heavy Rain
73°F / 23°C 66°F / 19°C 78% 29.83 in
(1010 mb)
NW 5.8 mph
(NW 9 kph)
0.09 in
(2.29 mm)
3SM
20:54
Overcast
Thunder Storms
77°F / 25°C 66°F / 19°C 69% 29.83 in
(1010 mb)
NW 13.8 mph
(NW 22 kph)
0.01 in
(0.25 mm)
9SM
20:40
Mostly Cloudy
Thunder Storms
79°F / 26°C 66°F / 19°C 65% 29.83 in
(1010 mb)
NNW 9.2 mph
(NNW 15 kph)
- 10SM
19:54
Clear
82°F / 28°C 72°F / 22°C 70% 29.77 in
(1008 mb)
SW 8.1 mph
(SW 13 kph)
- 10SM
18:54
Clear
82°F / 28°C 72°F / 22°C 70% 29.77 in
(1008 mb)
SW 10.4 mph
(SW 17 kph)
0.00 in
(0.00 mm)
10SM
17:54
Clear
84°F / 29°C 72°F / 22°C 66% 29.74 in
(1007 mb)
SW 12.7 mph
(SW 20 kph)
- 10SM
16:54
Partly Cloudy
88°F / 31°C 72°F / 22°C 59% 29.74 in
(1007 mb)
SW 11.5 mph
(SW 19 kph)
- 10SM
15:54
Mostly Cloudy
88°F / 31°C 70°F / 21°C 55% 29.74 in
(1007 mb)
SW 13.8 mph
(SW 22 kph)
- 10SM
14:54
Partly Cloudy
91°F / 33°C 66°F / 19°C 44% 29.77 in
(1008 mb)
SW 17.3 mph
(SW 28 kph)
- 10SM
13:54
Clear
91°F / 33°C 70°F / 21°C 49% 29.77 in
(1008 mb)
SW 15 mph
(SW 24 kph)
- 10SM
12:54
Partly Cloudy
90°F / 32°C 72°F / 22°C 55% 29.8 in
(1009 mb)
S 11.5 mph
(S 19 kph)
- 10SM
11:54
Mostly Cloudy
88°F / 31°C 70°F / 21°C 55% 29.83 in
(1010 mb)
SSW 11.5 mph
(SSW 19 kph)
- 10SM
10:54
Clear
88°F / 31°C 72°F / 22°C 59% 29.86 in
(1011 mb)
SW 10.4 mph
(SW 17 kph)
- 10SM
09:54
Partly Cloudy
84°F / 29°C 72°F / 22°C 66% 29.89 in
(1012 mb)
SSW 10.4 mph
(SSW 17 kph)
- 10SM
08:54
Clear
81°F / 27°C 70°F / 21°C 70% 29.92 in
(1013 mb)
SW 8.1 mph
(SW 13 kph)
- 10SM
07:54
Partly Cloudy
79°F / 26°C 70°F / 21°C 74% 29.92 in
(1013 mb)
SW 12.7 mph
(SW 20 kph)
- 10SM
07:00
Partly Cloudy
75°F / 24°C 68°F / 20°C 78% 29.95 in
(1014 mb)
SW 10.4 mph
(SW 17 kph)
- 10SM
06:54
Clear
75°F / 24°C 68°F / 20°C 78% 29.95 in
(1014 mb)
SW 9.2 mph
(SW 15 kph)
0.00 in
(0.00 mm)
10SM
06:25
Partly Cloudy
73°F / 23°C 66°F / 19°C 78% 29.95 in
(1014 mb)
SW 8.1 mph
(SW 13 kph)
0.00 in
(0.00 mm)
10SM
05:54
Clear
72°F / 22°C 66°F / 19°C 83% 29.95 in
(1014 mb)
SW 8.1 mph
(SW 13 kph)
- 10SM
04:54
Clear
70°F / 21°C 66°F / 19°C 88% 29.95 in
(1014 mb)
SSE 6.9 mph
(SSE 11 kph)
- 10SM
03:54
Clear
72°F / 22°C 66°F / 19°C 83% 29.95 in
(1014 mb)
SW 6.9 mph
(SW 11 kph)
- 10SM
02:54
Clear
72°F / 22°C 66°F / 19°C 83% 29.95 in
(1014 mb)
SSE 6.9 mph
(SSE 11 kph)
- 10SM
01:54
Clear
73°F / 23°C 66°F / 19°C 78% 29.98 in
(1015 mb)
SSE 6.9 mph
(SSE 11 kph)
- 10SM
00:54
Clear
73°F / 23°C 66°F / 19°C 78% 29.98 in
(1015 mb)
SW 6.9 mph
(SW 11 kph)
- 10SM
Time Weather Temperature Dewpoint Humidity Pressure Winds Precip Visibility


Weather for websites

WeatherForYou.com, LLC is not responsible for any damages or problems caused by this service. Current weather conditions are obtained from the closest station including government and personal stations which may have varying degrees of accuracy. Weather forecasts are derived from the NOAA NDFD. Like all things, this site belongs to Jesus Christ... He just trusts me to maintain it. If you have any questions or comments email webmaster@weatherforyou.com

Copyright © 2014, WeatherForYou.com LLC. All rights reserved.